Time,TemperatureF,DewpointF,PressureIn,WindDirection,WindDirectionDegrees,WindSpeedMPH,WindSpeedGustMPH,Humidity,HourlyPrecipIn,Conditions,Clouds,dailyrainin,SolarRadiationWatts/m^2,SoftwareType,DateUTC
2013-01-19 00:04:00,22.0,6.0,-100.00,WNW,301,2.0,14.0,49,0.00,,,0.00,0.000000,,2013-01-19 05:04:00,
2013-01-19 00:13:00,22.0,6.0,-100.00,WNW,301,2.0,14.0,49,0.00,,,0.00,0.000000,,2013-01-19 05:13:00,
2013-01-19 00:23:00,22.0,6.0,-100.00,WNW,301,2.0,14.0,49,0.00,,,0.00,0.000000,,2013-01-19 05:23:00,
2013-01-19 00:53:00,29.0,14.0,-100.00,SW,229,8.0,16.0,52,0.00,,,0.00,1.000000,,2013-01-19 05:53:00,
2013-01-19 01:03:00,29.0,14.0,-100.00,SW,229,8.0,16.0,52,0.00,,,0.00,1.000000,,2013-01-19 06:03:00,
2013-01-19 01:12:00,29.0,14.0,-100.00,SW,229,8.0,16.0,52,0.00,,,0.00,1.000000,,2013-01-19 06:12:00,
2013-01-19 01:22:00,29.0,14.0,-100.00,SW,229,8.0,16.0,52,0.00,,,0.00,1.000000,,2013-01-19 06:22:00,
2013-01-19 01:53:00,31.0,17.0,-100.00,SW,226,10.0,19.0,55,0.00,,,0.00,1.000000,,2013-01-19 06:53:00,
2013-01-19 02:02:00,31.0,17.0,-100.00,SW,226,10.0,19.0,55,0.00,,,0.00,1.000000,,2013-01-19 07:02:00,
2013-01-19 02:12:00,31.0,17.0,-100.00,SW,226,10.0,19.0,55,0.00,,,0.00,1.000000,,2013-01-19 07:12:00,
2013-01-19 02:22:00,31.0,17.0,-100.00,SW,226,10.0,19.0,55,0.00,,,0.00,1.000000,,2013-01-19 07:22:00,
2013-01-19 02:53:00,33.0,19.0,-100.00,SW,228,10.0,22.0,56,0.00,,,0.00,0.000000,,2013-01-19 07:53:00,
2013-01-19 03:03:00,33.0,19.0,-100.00,SW,228,10.0,22.0,56,0.00,,,0.00,0.000000,,2013-01-19 08:03:00,
2013-01-19 03:12:00,33.0,19.0,-100.00,SW,228,10.0,22.0,56,0.00,,,0.00,0.000000,,2013-01-19 08:12:00,
2013-01-19 03:22:00,33.0,19.0,-100.00,SW,228,10.0,22.0,56,0.00,,,0.00,0.000000,,2013-01-19 08:22:00,
2013-01-19 03:53:00,34.0,22.0,-100.00,SW,229,12.0,25.0,61,0.00,,,0.00,1.000000,,2013-01-19 08:53:00,
2013-01-19 04:02:00,34.0,22.0,-100.00,SW,229,12.0,25.0,61,0.00,,,0.00,1.000000,,2013-01-19 09:02:00,
2013-01-19 04:12:00,34.0,22.0,-100.00,SW,229,12.0,25.0,61,0.00,,,0.00,1.000000,,2013-01-19 09:12:00,
2013-01-19 04:23:00,34.0,22.0,-100.00,SW,229,12.0,25.0,61,0.00,,,0.00,1.000000,,2013-01-19 09:23:00,
2013-01-19 04:53:00,36.0,25.0,-100.00,SW,217,14.0,29.0,63,0.00,,,0.00,1.000000,,2013-01-19 09:53:00,
2013-01-19 05:02:00,36.0,25.0,-100.00,SW,217,14.0,29.0,63,0.00,,,0.00,1.000000,,2013-01-19 10:02:00,
2013-01-19 05:12:00,36.0,25.0,-100.00,SW,217,14.0,29.0,63,0.00,,,0.00,1.000000,,2013-01-19 10:12:00,
2013-01-19 05:23:00,36.0,25.0,-100.00,SW,217,14.0,29.0,63,0.00,,,0.00,1.000000,,2013-01-19 10:23:00,
2013-01-19 05:53:00,37.0,26.0,-100.00,SW,224,15.0,26.0,65,0.00,,,0.00,0.000000,,2013-01-19 10:53:00,
2013-01-19 06:03:00,37.0,26.0,-100.00,SW,224,15.0,26.0,65,0.00,,,0.00,0.000000,,2013-01-19 11:03:00,
2013-01-19 06:12:00,37.0,26.0,-100.00,SW,224,15.0,26.0,65,0.00,,,0.00,0.000000,,2013-01-19 11:12:00,
2013-01-19 06:25:00,38.0,26.0,-100.00,SW,229,14.0,30.0,61,0.00,,,0.00,1.000000,,2013-01-19 11:25:00,
2013-01-19 07:53:00,39.0,29.0,-100.00,SW,225,14.0,30.0,66,0.00,,,0.00,3.000000,,2013-01-19 12:53:00,
2013-01-19 08:03:00,39.0,29.0,-100.00,SW,225,14.0,30.0,66,0.00,,,0.00,3.000000,,2013-01-19 13:03:00,
2013-01-19 08:13:00,39.0,29.0,-100.00,SW,225,14.0,30.0,66,0.00,,,0.00,3.000000,,2013-01-19 13:13:00,
2013-01-19 08:23:00,39.0,29.0,-100.00,SW,225,14.0,30.0,66,0.00,,,0.00,3.000000,,2013-01-19 13:23:00,
2013-01-19 08:54:00,42.0,30.0,-100.00,SW,226,17.0,29.0,63,0.00,,,0.00,82.000000,,2013-01-19 13:54:00,
2013-01-19 09:03:00,42.0,30.0,-100.00,SW,226,17.0,29.0,63,0.00,,,0.00,82.000000,,2013-01-19 14:03:00,
2013-01-19 09:13:00,42.0,30.0,-100.00,SW,226,17.0,29.0,63,0.00,,,0.00,82.000000,,2013-01-19 14:13:00,
2013-01-19 09:23:00,42.0,30.0,-100.00,SW,226,17.0,29.0,63,0.00,,,0.00,82.000000,,2013-01-19 14:23:00,
2013-01-19 09:54:00,44.0,31.0,-100.00,SW,226,18.0,37.0,61,0.00,,,0.00,207.000000,,2013-01-19 14:54:00,
2013-01-19 10:03:00,44.0,31.0,-100.00,SW,226,18.0,37.0,61,0.00,,,0.00,207.000000,,2013-01-19 15:03:00,
2013-01-19 10:13:00,44.0,31.0,-100.00,SW,226,18.0,37.0,61,0.00,,,0.00,207.000000,,2013-01-19 15:13:00,
2013-01-19 10:23:00,44.0,31.0,-100.00,SW,226,18.0,37.0,61,0.00,,,0.00,207.000000,,2013-01-19 15:23:00,
2013-01-19 10:53:00,46.0,32.0,-100.00,SW,223,15.0,32.0,57,0.00,,,0.00,334.000000,,2013-01-19 15:53:00,
2013-01-19 11:03:00,46.0,32.0,-100.00,SW,223,15.0,32.0,57,0.00,,,0.00,334.000000,,2013-01-19 16:03:00,
2013-01-19 11:13:00,46.0,32.0,-100.00,SW,223,15.0,32.0,57,0.00,,,0.00,334.000000,,2013-01-19 16:13:00,
2013-01-19 11:23:00,46.0,32.0,-100.00,SW,223,15.0,32.0,57,0.00,,,0.00,334.000000,,2013-01-19 16:23:00,
2013-01-19 11:25:00,47.0,32.0,-100.00,SW,226,16.0,33.0,55,0.00,,,0.00,427.000000,,2013-01-19 16:25:00,
2013-01-19 11:54:00,47.0,32.0,-100.00,SW,226,16.0,33.0,55,0.00,,,0.00,427.000000,,2013-01-19 16:54:00,
2013-01-19 12:03:00,47.0,32.0,-100.00,SW,226,16.0,33.0,55,0.00,,,0.00,427.000000,,2013-01-19 17:03:00,
2013-01-19 12:22:00,47.0,32.0,-100.00,SW,226,16.0,33.0,55,0.00,,,0.00,427.000000,,2013-01-19 17:22:00,
2013-01-19 12:25:00,48.0,32.0,-100.00,SW,224,16.0,37.0,54,0.00,,,0.00,464.000000,,2013-01-19 17:25:00,
2013-01-19 12:55:00,48.0,32.0,-100.00,SW,224,16.0,37.0,54,0.00,,,0.00,464.000000,,2013-01-19 17:55:00,
2013-01-19 13:13:00,48.0,32.0,-100.00,SW,224,16.0,37.0,54,0.00,,,0.00,464.000000,,2013-01-19 18:13:00,
2013-01-19 14:04:00,48.0,31.0,-100.00,SW,221,17.0,37.0,52,0.00,,,0.00,447.000000,,2013-01-19 19:04:00,
2013-01-19 14:10:00,48.0,31.0,-100.00,SW,221,17.0,37.0,52,0.00,,,0.00,447.000000,,2013-01-19 19:10:00,
2013-01-19 14:22:00,48.0,31.0,-100.00,SW,221,17.0,37.0,52,0.00,,,0.00,447.000000,,2013-01-19 19:22:00,
2013-01-19 14:25:00,48.0,32.0,-100.00,SW,222,14.0,27.0,53,0.00,,,0.00,389.000000,,2013-01-19 19:25:00,
2013-01-19 15:12:00,48.0,32.0,-100.00,SW,222,14.0,27.0,53,0.00,,,0.00,389.000000,,2013-01-19 20:12:00,
2013-01-19 15:20:00,48.0,32.0,-100.00,SW,222,14.0,27.0,53,0.00,,,0.00,389.000000,,2013-01-19 20:20:00,
2013-01-19 15:25:00,46.0,34.0,-100.00,SW,227,14.0,29.0,62,0.00,,,0.00,234.000000,,2013-01-19 20:25:00,
2013-01-19 15:59:00,46.0,34.0,-100.00,SW,227,14.0,29.0,62,0.00,,,0.00,234.000000,,2013-01-19 20:59:00,
2013-01-19 16:09:00,46.0,34.0,-100.00,SW,227,14.0,29.0,62,0.00,,,0.00,234.000000,,2013-01-19 21:09:00,
2013-01-19 16:15:00,46.0,34.0,-100.00,SW,227,14.0,29.0,62,0.00,,,0.00,234.000000,,2013-01-19 21:15:00,
2013-01-19 16:25:00,44.0,33.0,-100.00,SW,228,11.0,23.0,66,0.00,,,0.00,73.000000,,2013-01-19 21:25:00,
2013-01-19 17:02:00,44.0,33.0,-100.00,SW,228,11.0,23.0,66,0.00,,,0.00,73.000000,,2013-01-19 22:02:00,
2013-01-19 17:16:00,44.0,33.0,-100.00,SW,228,11.0,23.0,66,0.00,,,0.00,73.000000,,2013-01-19 22:16:00,
2013-01-19 17:25:00,44.0,35.0,-100.00,SW,232,10.0,21.0,71,0.00,,,0.00,5.000000,,2013-01-19 22:25:00,
2013-01-19 18:14:00,44.0,35.0,-100.00,SW,232,10.0,21.0,71,0.00,,,0.00,5.000000,,2013-01-19 23:14:00,
2013-01-19 18:25:00,44.0,36.0,-100.00,SW,232,9.0,20.0,73,0.00,,,0.00,1.000000,,2013-01-19 23:25:00,
2013-01-19 19:08:00,44.0,36.0,-100.00,SW,232,9.0,20.0,73,0.00,,,0.00,1.000000,,2013-01-20 00:08:00,
2013-01-19 19:16:00,44.0,36.0,-100.00,SW,232,9.0,20.0,73,0.00,,,0.00,1.000000,,2013-01-20 00:16:00,
2013-01-19 19:25:00,43.0,36.0,-100.00,SW,232,8.0,18.0,75,0.00,,,0.00,1.000000,,2013-01-20 00:25:00,
2013-01-19 19:58:00,43.0,36.0,-100.00,SW,232,8.0,18.0,75,0.00,,,0.00,1.000000,,2013-01-20 00:58:00,
2013-01-19 20:05:00,43.0,36.0,-100.00,SW,232,8.0,18.0,75,0.00,,,0.00,1.000000,,2013-01-20 01:05:00,
2013-01-19 20:22:00,43.0,36.0,-100.00,SW,232,8.0,18.0,75,0.00,,,0.00,1.000000,,2013-01-20 01:22:00,
2013-01-19 21:05:00,44.0,37.0,-100.00,SW,231,9.0,18.0,75,0.00,,,0.00,1.000000,,2013-01-20 02:05:00,
2013-01-19 21:15:00,44.0,37.0,-100.00,SW,231,9.0,18.0,75,0.00,,,0.00,1.000000,,2013-01-20 02:15:00,
2013-01-19 21:25:00,44.0,37.0,-100.00,SW,225,8.0,19.0,75,0.00,,,0.00,1.000000,,2013-01-20 02:25:00,
2013-01-19 22:00:00,44.0,37.0,-100.00,SW,225,8.0,19.0,75,0.00,,,0.00,1.000000,,2013-01-20 03:00:00,
2013-01-19 22:09:00,44.0,37.0,-100.00,SW,225,8.0,19.0,75,0.00,,,0.00,1.000000,,2013-01-20 03:09:00,
2013-01-19 22:15:00,44.0,37.0,-100.00,SW,225,8.0,19.0,75,0.00,,,0.00,1.000000,,2013-01-20 03:15:00,
2013-01-19 22:58:00,44.0,36.0,-100.00,SW,230,10.0,16.0,74,0.00,,,0.00,0.000000,,2013-01-20 03:58:00,
2013-01-19 23:05:00,44.0,36.0,-100.00,SW,230,10.0,16.0,74,0.00,,,0.00,0.000000,,2013-01-20 04:05:00,
2013-01-19 23:15:00,44.0,36.0,-100.00,SW,230,10.0,16.0,74,0.00,,,0.00,0.000000,,2013-01-20 04:15:00,
2013-01-19 23:59:00,45.0,35.0,-100.00,SW,228,11.0,21.0,68,0.00,,,0.00,0.000000,,2013-01-20 04:59:00,